| time (UTC) | temp F | wind direction | speed knots | gust knots | rain 1hr in | rain 24hr in | rain mn in | humidity % | barometer mb |
| 20260902163650 | 65 | 317 | 3.5 | 6.1 | 0.00 | 0.00 | 0.00 | 59 | 1011.5 |
| 20260902163148 | 66 | 322 | 5.2 | 9.6 | 0.00 | 0.00 | 0.00 | 60 | 1011.7 |
| 20260902162645 | 66 | 325 | 6.1 | 10.4 | 0.00 | 0.00 | 0.00 | 61 | 1011.8 |
| 20260902162143 | 66 | 319 | 5.2 | 10.4 | 0.00 | 0.00 | 0.00 | 58 | 1011.7 |
| 20260902161641 | 66 | 309 | 7.0 | 10.4 | 0.00 | 0.00 | 0.00 | 57 | 1012.0 |
| 20260902161139 | 66 | 306 | 6.1 | 9.6 | 0.00 | 0.00 | 0.00 | 58 | 1011.9 |
| 20260902160637 | 66 | 303 | 5.2 | 7.8 | 0.00 | 0.00 | 0.00 | 56 | 1012.0 |
| 20260902160131 | 67 | 307 | 7.0 | 10.4 | 0.00 | 0.00 | 0.00 | 55 | 1011.9 |
| 20260902155629 | 66 | 316 | 7.8 | 10.4 | 0.00 | 0.00 | 0.00 | 56 | 1012.0 |
| 20260902155129 | 65 | 308 | 7.8 | 8.7 | 0.00 | 0.00 | 0.00 | 59 | 1012.0 |
| 20260902154122 | 65 | 312 | 6.1 | 7.8 | 0.00 | 0.00 | 0.00 | 60 | 1012.2 |
| 20260902153619 | 65 | 319 | 5.2 | 8.7 | 0.00 | 0.00 | 0.00 | 65 | 1012.3 |
| 20260902153116 | 65 | 318 | 4.3 | 6.1 | 0.00 | 0.00 | 0.00 | 60 | 1012.3 |
| 20260902152614 | 65 | 317 | 3.5 | 4.3 | 0.00 | 0.00 | 0.00 | 59 | 1012.3 |
| 20260902152111 | 65 | 316 | 3.5 | 4.3 | 0.00 | 0.00 | 0.00 | 58 | 1012.4 |
| 20260902151611 | 65 | 309 | 2.6 | 3.5 | 0.00 | 0.00 | 0.00 | 58 | 1012.4 |
| 20260902151109 | 65 | 292 | 2.6 | 4.3 | 0.00 | 0.00 | 0.00 | 58 | 1012.4 |
| 20260902145559 | 64 | 349 | 1.7 | 2.6 | 0.00 | 0.00 | 0.00 | 61 | 1012.5 |
| 20260902145056 | 64 | 338 | 2.6 | 3.5 | 0.00 | 0.00 | 0.00 | 61 | 1012.5 |
| 20260902144553 | 64 | 337 | 3.5 | 4.3 | 0.00 | 0.00 | 0.00 | 61 | 1012.6 |
| 20260902144052 | 64 | 335 | 4.3 | 7.8 | 0.00 | 0.00 | 0.00 | 60 | 1012.5 |
| 20260902143551 | 65 | 331 | 6.1 | 7.8 | 0.00 | 0.00 | 0.00 | 59 | 1012.5 |
| 20260902143049 | 65 | 332 | 6.1 | 7.8 | 0.00 | 0.00 | 0.00 | 57 | 1012.5 |
| 20260902142547 | 65 | 329 | 4.3 | 7.0 | 0.00 | 0.00 | 0.00 | 57 | 1012.5 |
| 20260902141542 | 66 | 312 | 5.2 | 6.1 | 0.00 | 0.00 | 0.00 | 55 | 1012.7 |
| 20260902141040 | 65 | 316 | 6.1 | 7.8 | 0.00 | 0.00 | 0.00 | 56 | 1012.8 |
| 20260902140538 | 0 | 320 | 7.0 | 9.6 | 0.00 | 0.00 | 0.00 | ||
| 20260902140037 | 65 | 322 | 7.0 | 9.6 | 0.00 | 0.00 | 0.00 | 60 | 1012.8 |
| 20260902135537 | 64 | 326 | 6.1 | 7.0 | 0.00 | 0.00 | 0.00 | 61 | 1012.7 |
| 20260902135035 | 64 | 328 | 7.0 | 9.6 | 0.00 | 0.00 | 0.00 | 61 | 1012.7 |
| 20260902134533 | 65 | 327 | 6.1 | 7.0 | 0.00 | 0.00 | 0.00 | 59 | 1012.8 |
| 20260902133528 | 65 | 319 | 4.3 | 6.1 | 0.00 | 0.00 | 0.00 | 59 | 1012.9 |
| 20260902133026 | 65 | 325 | 2.6 | 4.3 | 0.00 | 0.00 | 0.00 | 56 | 1012.9 |
| 20260902132525 | 66 | 324 | 2.6 | 7.0 | 0.00 | 0.00 | 0.00 | 57 | 1012.8 |
| 20260902132024 | 66 | 317 | 4.3 | 5.2 | 0.00 | 0.00 | 0.00 | 58 | 1012.9 |
| 20260902131523 | 66 | 317 | 4.3 | 7.0 | 0.00 | 0.00 | 0.00 | 57 | 1012.9 |
| 20260902131022 | 66 | 318 | 4.3 | 6.1 | 0.00 | 0.00 | 0.00 | 56 | 1012.9 |
| 20260902130017 | 66 | 306 | 5.2 | 6.1 | 0.00 | 0.00 | 0.00 | 55 | 1013.0 |
| 20260902125012 | 67 | 308 | 6.1 | 7.0 | 0.00 | 0.00 | 0.00 | 56 | 1013.1 |
| 20260902124511 | 67 | 309 | 6.1 | 7.8 | 0.00 | 0.00 | 0.00 | 54 | 1013.0 |
| 20260902123506 | 68 | 307 | 7.0 | 7.8 | 0.00 | 0.00 | 0.00 | 50 | 1013.2 |
| 20260902123005 | 68 | 305 | 7.0 | 7.8 | 0.00 | 0.00 | 0.00 | 50 | 1013.3 |
| 20260902122503 | 68 | 307 | 7.0 | 9.6 | 0.00 | 0.00 | 0.00 | 51 | 1013.4 |
| 20260902122002 | 68 | 311 | 7.8 | 9.6 | 0.00 | 0.00 | 0.00 | 51 | 1013.5 |
| 20260902120452 | 68 | 308 | 6.1 | 7.8 | 0.00 | 0.00 | 0.00 | 50 | 1013.5 |
| 20260902115951 | 68 | 297 | 5.2 | 7.0 | 0.00 | 0.00 | 0.00 | 49 | 1013.5 |
| 20260902114945 | 68 | 302 | 5.2 | 7.0 | 0.00 | 0.00 | 0.00 | 50 | 1013.5 |
| 20260902114443 | 68 | 301 | 3.5 | 5.2 | 0.00 | 0.00 | 0.00 | 50 | 1013.4 |
| 20260902113941 | 68 | 313 | 2.6 | 3.5 | 0.00 | 0.00 | 0.00 | 53 | 1013.5 |
| 20260902113439 | 68 | 304 | 2.6 | 5.2 | 0.00 | 0.00 | 0.00 | 52 | 1013.5 |
| 20260902112936 | 68 | 310 | 2.6 | 6.1 | 0.00 | 0.00 | 0.00 | 53 | 1013.5 |
| 20260902110422 | 69 | 312 | 3.5 | 5.2 | 0.00 | 0.00 | 0.00 | 50 | 1013.6 |
| 20260902105919 | 69 | 317 | 4.3 | 7.0 | 0.00 | 0.00 | 0.00 | 48 | 1013.6 |
| 20260902105416 | 69 | 316 | 6.1 | 7.8 | 0.00 | 0.00 | 0.00 | 49 | 1013.5 |
| 20260902104915 | 69 | 319 | 4.3 | 7.0 | 0.00 | 0.00 | 0.00 | 49 | 1013.5 |
| 20260902104413 | 68 | 321 | 3.5 | 5.2 | 0.00 | 0.00 | 0.00 | 50 | 1013.4 |
| 20260902103406 | 69 | 310 | 2.6 | 4.3 | 0.00 | 0.00 | 0.00 | 49 | 1013.3 |
| 20260902102903 | 69 | 318 | 3.5 | 6.1 | 0.00 | 0.00 | 0.00 | 49 | 1013.3 |
| 20260902102401 | 69 | 325 | 4.3 | 7.8 | 0.00 | 0.00 | 0.00 | 48 | 1013.2 |
| 20260902101356 | 69 | 301 | 1.7 | 3.5 | 0.00 | 0.00 | 0.00 | 48 | 1013.2 |
| 20260902100852 | 68 | 303 | 1.7 | 3.5 | 0.00 | 0.00 | 0.00 | 50 | 1013.1 |
| 20260902100350 | 68 | 321 | 2.6 | 5.2 | 0.00 | 0.00 | 0.00 | 51 | 1013.1 |
| 20260902095846 | 69 | 328 | 4.3 | 7.0 | 0.00 | 0.00 | 0.00 | 50 | 1013.0 |
| 20260902095344 | 69 | 331 | 5.2 | 7.0 | 0.00 | 0.00 | 0.00 | 50 | 1012.9 |
| 20260902094843 | 69 | 321 | 4.3 | 6.1 | 0.00 | 0.00 | 0.00 | 49 | 1012.9 |
| 20260902094341 | 69 | 324 | 4.3 | 7.0 | 0.00 | 0.00 | 0.00 | 49 | 1012.9 |
| 20260902093838 | 69 | 332 | 5.2 | 7.8 | 0.00 | 0.00 | 0.00 | 48 | 1012.9 |
| 20260902093336 | 69 | 329 | 6.1 | 7.0 | 0.00 | 0.00 | 0.00 | 47 | 1012.8 |
| 20260902092832 | 69 | 336 | 7.8 | 8.7 | 0.00 | 0.00 | 0.00 | 49 | 1012.7 |
| 20260902092329 | 69 | 338 | 8.7 | 10.4 | 0.00 | 0.00 | 0.00 | 47 | 1012.7 |
| 20260902091827 | 70 | 340 | 9.6 | 11.3 | 0.00 | 0.00 | 0.00 | 46 | 1012.7 |
| 20260902091326 | 70 | 342 | 10.4 | 11.3 | 0.00 | 0.00 | 0.00 | 46 | 1012.6 |
| 20260902090824 | 70 | 340 | 10.4 | 11.3 | 0.00 | 0.00 | 0.00 | 46 | 1012.6 |
| 20260902090320 | 71 | 340 | 11.3 | 11.3 | 0.00 | 0.00 | 0.00 | 45 | 1012.6 |
| 20260902085820 | 71 | 340 | 11.3 | 11.3 | 0.00 | 0.00 | 0.00 | 45 | 1012.4 |
| 20260902085318 | 71 | 339 | 12.2 | 12.2 | 0.00 | 0.00 | 0.00 | 44 | 1012.5 |
| 20260902084312 | 72 | 335 | 13.0 | 13.0 | 0.00 | 0.00 | 0.00 | 43 | 1012.4 |
| 20260902083809 | 72 | 333 | 12.2 | 13.0 | 0.00 | 0.00 | 0.00 | 43 | 1012.3 |
| 20260902083308 | 72 | 332 | 12.2 | 13.0 | 0.00 | 0.00 | 0.00 | 44 | 1012.3 |
| 20260902082805 | 72 | 332 | 11.3 | 13.0 | 0.00 | 0.00 | 0.00 | 44 | 1012.3 |
| 20260902082308 | 72 | 334 | 12.2 | 13.9 | 0.00 | 0.00 | 0.00 | 43 | 1012.3 |
| 20260902081801 | 73 | 336 | 12.2 | 13.0 | 0.00 | 0.00 | 0.00 | 42 | 1012.3 |
| 20260902080757 | 73 | 338 | 12.2 | 12.2 | 0.00 | 0.00 | 0.00 | 42 | 1012.3 |
| 20260902080255 | 73 | 339 | 11.3 | 12.2 | 0.00 | 0.00 | 0.00 | 42 | 1012.2 |
| 20260902075249 | 73 | 335 | 10.4 | 11.3 | 0.00 | 0.00 | 0.00 | 43 | 1012.2 |
| 20260902074747 | 73 | 333 | 7.8 | 11.3 | 0.00 | 0.00 | 0.00 | 42 | 1012.2 |
| 20260902074245 | 73 | 331 | 7.8 | 9.6 | 0.00 | 0.00 | 0.00 | 42 | 1012.1 |
| 20260902073236 | 73 | 323 | 8.7 | 13.0 | 0.00 | 0.00 | 0.00 | 43 | 1012.1 |
| 20260902072231 | 74 | 329 | 7.8 | 10.4 | 0.00 | 0.00 | 0.00 | 41 | 1012.0 |
| 20260902071728 | 74 | 320 | 10.4 | 14.8 | 0.00 | 0.00 | 0.00 | 44 | 1011.9 |
| 20260902071225 | 74 | 309 | 12.2 | 15.6 | 0.00 | 0.00 | 0.00 | 44 | 1011.9 |
| 20260902070721 | 75 | 312 | 12.2 | 14.8 | 0.00 | 0.00 | 0.00 | 42 | 1011.9 |
| 20260902070218 | 75 | 308 | 11.3 | 15.6 | 0.00 | 0.00 | 0.00 | 42 | 1011.9 |
| 20260902065716 | 76 | 308 | 9.6 | 16.5 | 0.00 | 0.00 | 0.00 | 41 | 1011.9 |
| 20260902065214 | 76 | 314 | 11.3 | 17.4 | 0.00 | 0.00 | 0.00 | 40 | 1011.8 |
| 20260902064711 | 76 | 315 | 17.4 | 21.7 | 0.00 | 0.00 | 0.00 | 39 | 1011.8 |
| 20260902064208 | 77 | 313 | 15.6 | 25.2 | 0.00 | 0.00 | 0.00 | 37 | 1011.8 |
| 20260902062658 | 76 | 310 | 11.3 | 18.2 | 0.00 | 0.00 | 0.00 | 40 | 1011.8 |
| 20260902062156 | 77 | 308 | 7.8 | 15.6 | 0.00 | 0.00 | 0.00 | 39 | 1011.8 |
| 20260902061653 | 77 | 306 | 12.2 | 18.2 | 0.00 | 0.00 | 0.00 | 39 | 1011.8 |
| 20260902061151 | 77 | 309 | 13.0 | 18.2 | 0.00 | 0.00 | 0.00 | 40 | 1011.8 |
| 20260902060649 | 77 | 307 | 12.2 | 19.1 | 0.00 | 0.00 | 0.00 | 38 | 1011.7 |
| 20260902060146 | 78 | 308 | 13.0 | 19.1 | 0.00 | 0.00 | 0.00 | 37 | 1011.6 |
| 20260902055645 | 78 | 308 | 15.6 | 20.9 | 0.00 | 0.00 | 0.00 | 38 | 1011.7 |
| 20260902054639 | 77 | 308 | 14.8 | 21.7 | 0.00 | 0.00 | 0.00 | 41 | 1011.7 |
| 20260902054135 | 77 | 308 | 10.4 | 18.2 | 0.00 | 0.00 | 0.00 | 41 | 1011.8 |
| 20260902053633 | 78 | 307 | 13.9 | 21.7 | 0.00 | 0.00 | 0.00 | 37 | 1011.8 |
| 20260902053130 | 78 | 310 | 19.1 | 24.3 | 0.00 | 0.00 | 0.00 | 37 | 1011.7 |
| 20260902052627 | 78 | 313 | 18.2 | 26.9 | 0.00 | 0.00 | 0.00 | 37 | 1011.7 |
| 20260902052125 | 78 | 309 | 16.5 | 24.3 | 0.00 | 0.00 | 0.00 | 37 | 1011.7 |
| 20260902051623 | 79 | 305 | 11.3 | 19.1 | 0.00 | 0.00 | 0.00 | 36 | 1011.7 |
| 20260902051122 | 78 | 310 | 13.0 | 20.9 | 0.00 | 0.00 | 0.00 | 37 | 1011.8 |
| 20260902045615 | 78 | 312 | 14.8 | 20.0 | 0.00 | 0.00 | 0.00 | 39 | 1011.9 |
| 20260902045113 | 78 | 311 | 16.5 | 26.9 | 0.00 | 0.00 | 0.00 | 39 | 1012.0 |
| 20260902044612 | 78 | 307 | 11.3 | 21.7 | 0.00 | 0.00 | 0.00 | 38 | 1012.0 |
| 20260902044110 | 78 | 310 | 17.4 | 26.1 | 0.00 | 0.00 | 0.00 | 38 | 1012.0 |
| 20260902043608 | 79 | 306 | 11.3 | 18.2 | 0.00 | 0.00 | 0.00 | 37 | 1012.2 |
| 20260902043104 | 78 | 310 | 13.9 | 22.6 | 0.00 | 0.00 | 0.00 | 41 | 1012.3 |
| 20260902042602 | 78 | 306 | 13.0 | 21.7 | 0.00 | 0.00 | 0.00 | 39 | 1012.2 |
| 20260902042059 | 78 | 304 | 8.7 | 17.4 | 0.00 | 0.00 | 0.00 | 39 | 1012.2 |
| 20260902041558 | 78 | 298 | 9.6 | 18.2 | 0.00 | 0.00 | 0.00 | 38 | 1012.2 |
| 20260902041054 | 78 | 310 | 13.9 | 21.7 | 0.00 | 0.00 | 0.00 | 37 | 1012.3 |
| 20260902040258 | 78 | 308 | 9.6 | 22.6 | 0.00 | 0.00 | 0.00 | 39 | 1012.2 |
| 20260902035756 | 78 | 306 | 9.6 | 17.4 | 0.00 | 0.00 | 0.00 | 40 | 1012.4 |
| 20260902034634 | 78 | 309 | 12.2 | 20.0 | 0.00 | 0.00 | 0.00 | 41 | 1012.6 |
| 20260902034133 | 78 | 306 | 13.0 | 21.7 | 0.00 | 0.00 | 0.00 | 39 | 1012.6 |
| 20260902033129 | 76 | 309 | 6.1 | 14.8 | 0.00 | 0.00 | 0.00 | 48 | 1012.8 |
| 20260902032124 | 76 | 345 | 2.6 | 6.1 | 0.00 | 0.00 | 0.00 | 45 | 1013.0 |
| 20260902031623 | 76 | 358 | 2.6 | 3.5 | 0.00 | 0.00 | 0.00 | 46 | 1013.1 |
| 20260902031123 | 76 | 10 | 2.6 | 4.3 | 0.00 | 0.00 | 0.00 | 49 | 1013.1 |
| 20260902030621 | 75 | 22 | 2.6 | 4.3 | 0.00 | 0.00 | 0.00 | 48 | 1013.2 |
| 20260902030118 | 74 | 56 | 3.5 | 5.2 | 0.00 | 0.00 | 0.00 | 50 | 1013.3 |
| 20260902025617 | 74 | 62 | 4.3 | 6.1 | 0.00 | 0.00 | 0.00 | 50 | 1013.4 |
| 20260902025116 | 74 | 51 | 4.3 | 7.0 | 0.00 | 0.00 | 0.00 | 51 | 1013.5 |
| 20260902024111 | 71 | 46 | 3.5 | 7.0 | 0.00 | 0.00 | 0.00 | 59 | 1013.7 |
| 20260902023609 | 71 | 42 | 3.5 | 5.2 | 0.00 | 0.00 | 0.00 | 61 | 1013.8 |
| 20260902023101 | 71 | 38 | 3.5 | 5.2 | 0.00 | 0.00 | 0.00 | 60 | 1013.9 |
| 20260902022600 | 72 | 40 | 3.5 | 5.2 | 0.00 | 0.00 | 0.00 | 59 | 1014.0 |
| 20260902022059 | 73 | 41 | 2.6 | 3.5 | 0.00 | 0.00 | 0.00 | 57 | 1014.2 |
| 20260902021557 | 73 | 44 | 3.5 | 5.2 | 0.00 | 0.00 | 0.00 | 58 | 1014.3 |
| 20260902020533 | 73 | 41 | 2.6 | 5.2 | 0.00 | 0.00 | 0.00 | 57 | 1014.7 |
| 20260902020032 | 73 | 51 | 4.3 | 6.1 | 0.00 | 0.00 | 0.00 | 60 | 1014.9 |
| 20260902015027 | 73 | 38 | 3.5 | 5.2 | 0.00 | 0.00 | 0.00 | 57 | 1014.9 |
| 20260902014023 | 71 | 29 | 3.5 | 5.2 | 0.00 | 0.00 | 0.00 | 62 | 1015.1 |
| 20260902013018 | 68 | 17 | 3.5 | 6.1 | 0.00 | 0.00 | 0.00 | 69 | 1015.3 |
| 20260902012013 | 67 | 34 | 2.6 | 3.5 | 0.00 | 0.00 | 0.00 | 68 | 1015.4 |
| 20260902011512 | 67 | 30 | 2.6 | 4.3 | 0.00 | 0.00 | 0.00 | 68 | 1015.5 |
| 20260902011011 | 68 | 21 | 2.6 | 4.3 | 0.00 | 0.00 | 0.00 | 66 | 1015.6 |
| 20260902010510 | 69 | 10 | 3.5 | 4.3 | 0.00 | 0.00 | 0.00 | 65 | 1015.6 |
| 20260902003926 | 67 | 11 | 3.5 | 4.3 | 0.00 | 0.00 | 0.00 | 67 | 1016.0 |
| 20260902003425 | 66 | 12 | 3.5 | 4.3 | 0.00 | 0.00 | 0.00 | 67 | 1016.1 |
| 20260902002924 | 67 | 6 | 2.6 | 4.3 | 0.00 | 0.00 | 0.00 | 68 | 1016.3 |
| 20260902002422 | 66 | 9 | 2.6 | 4.3 | 0.00 | 0.00 | 0.00 | 69 | 1016.4 |
| 20260902001922 | 66 | 10 | 2.6 | 4.3 | 0.00 | 0.00 | 0.00 | 68 | 1016.5 |
| 20260902001420 | 65 | 13 | 2.6 | 4.3 | 0.00 | 0.00 | 0.00 | 67 | 1016.7 |
| 20260902000919 | 65 | 15 | 2.6 | 3.5 | 0.00 | 0.00 | 0.00 | 64 | 1016.8 |
| 20260902000418 | 66 | 5 | 3.5 | 4.3 | 0.00 | 0.00 | 0.00 | 59 | 1016.9 |
| 20260901235413 | 67 | 10 | 1.7 | 2.6 | 0.00 | 0.00 | 0.00 | 59 | 1017.1 |
| 20260901234912 | 67 | 8 | 1.7 | 2.6 | 0.00 | 0.00 | 0.00 | 59 | 1017.0 |
| 20260901233903 | 68 | 344 | 0.9 | 2.6 | 0.00 | 0.00 | 0.00 | 54 | 1017.0 |
| 20260901233403 | 69 | 324 | 0.9 | 1.7 | 0.00 | 0.00 | 0.00 | 57 | 1017.1 |
| 20260901232902 | 69 | 309 | 0.9 | 1.7 | 0.00 | 0.00 | 0.00 | 51 | 1017.2 |
| 20260901230348 | 69 | 41 | 0.9 | 2.6 | 0.00 | 0.00 | 0.00 | 54 | 1017.2 |
| 20260901225846 | 68 | 358 | 0.9 | 1.7 | 0.00 | 0.00 | 0.00 | 54 | 1017.3 |
| 20260901224806 | 66 | 331 | 1.7 | 3.5 | 0.00 | 0.00 | 0.00 | 55 | 1017.3 |
| 20260901224305 | 65 | 325 | 0.9 | 2.6 | 0.00 | 0.00 | 0.00 | 54 | 1017.3 |
| 20260901223804 | 65 | 320 | 1.7 | 3.5 | 0.00 | 0.00 | 0.00 | 58 | 1017.3 |
| 20260901223303 | 65 | 324 | 2.6 | 5.2 | 0.00 | 0.00 | 0.00 | 58 | 1017.3 |
| 20260901222802 | 64 | 311 | 2.6 | 4.3 | 0.00 | 0.00 | 0.00 | 60 | 1017.3 |
| 20260901222301 | 64 | 303 | 2.6 | 4.3 | 0.00 | 0.00 | 0.00 | 62 | 1017.3 |
| 20260901221800 | 64 | 310 | 2.6 | 4.3 | 0.00 | 0.00 | 0.00 | 61 | 1017.4 |
| 20260901220756 | 64 | 316 | 3.5 | 4.3 | 0.00 | 0.00 | 0.00 | 63 | 1017.2 |
| 20260901220255 | 64 | 315 | 3.5 | 4.3 | 0.00 | 0.00 | 0.00 | 64 | 1017.2 |
| 20260901215251 | 65 | 324 | 2.6 | 3.5 | 0.00 | 0.00 | 0.00 | 66 | 1017.1 |
| 20260901214750 | 64 | 325 | 2.6 | 2.6 | 0.00 | 0.00 | 0.00 | 68 | 1017.1 |
| 20260901214248 | 64 | 321 | 2.6 | 3.5 | 0.00 | 0.00 | 0.00 | 68 | 1017.1 |
| 20260901213244 | 64 | 330 | 1.7 | 2.6 | 0.00 | 0.00 | 0.00 | 66 | 1017.2 |
| 20260901212743 | 64 | 319 | 1.7 | 2.6 | 0.00 | 0.00 | 0.00 | 68 | 1017.1 |
| 20260901212242 | 63 | 334 | 0.9 | 2.6 | 0.00 | 0.00 | 0.00 | 69 | 1017.1 |
| 20260901211741 | 61 | 289 | 0.9 | 0.9 | 0.00 | 0.00 | 0.00 | 72 | 1017.0 |
| 20260901211240 | 60 | 275 | 0.9 | 1.7 | 0.00 | 0.00 | 0.00 | 73 | 1016.9 |
| 20260901210737 | 60 | 41 | 1.7 | 1.7 | 0.00 | 0.00 | 0.00 | 74 | 1016.8 |
| 20260901210236 | 59 | 67 | 1.7 | 1.7 | 0.00 | 0.00 | 0.00 | 73 | 1016.8 |
| 20260901205735 | 59 | 122 | 1.7 | 3.5 | 0.00 | 0.00 | 0.00 | 75 | 1016.8 |
| 20260901205234 | 59 | 144 | 2.6 | 2.6 | 0.00 | 0.00 | 0.00 | 79 | 1016.8 |
| 20260901204733 | 60 | 75 | 1.7 | 2.6 | 0.00 | 0.00 | 0.00 | 79 | 1016.8 |
| 20260901204230 | 59 | 345 | 1.7 | 2.6 | 0.00 | 0.00 | 0.00 | 81 | 1016.7 |
| 20260901203730 | 59 | 115 | 0.9 | 1.7 | 0.00 | 0.00 | 0.00 | 82 | 1016.6 |
| 20260901203229 | 59 | 48 | 1.7 | 2.6 | 0.00 | 0.00 | 0.00 | 81 | 1016.4 |
| 20260901202728 | 59 | 2 | 2.6 | 3.5 | 0.00 | 0.00 | 0.00 | 81 | 1016.3 |
| 20260901202227 | 58 | 346 | 2.6 | 2.6 | 0.00 | 0.00 | 0.00 | 81 | 1016.4 |
| 20260901201726 | 58 | 1 | 2.6 | 3.5 | 0.00 | 0.00 | 0.00 | 82 | 1016.4 |
| 20260901201225 | 58 | 19 | 2.6 | 2.6 | 0.00 | 0.00 | 0.00 | 82 | 1016.4 |
| 20260901200219 | 58 | 23 | 2.6 | 3.5 | 0.00 | 0.00 | 0.00 | 81 | 1016.4 |
| 20260901195718 | 58 | 5 | 3.5 | 4.3 | 0.00 | 0.00 | 0.00 | 78 | 1016.2 |
| 20260901195216 | 58 | 321 | 2.6 | 3.5 | 0.00 | 0.00 | 0.00 | 80 | 1016.2 |
| 20260901194715 | 58 | 328 | 3.5 | 4.3 | 0.00 | 0.00 | 0.00 | 78 | 1016.2 |
| 20260901192704 | 58 | 9 | 1.7 | 2.6 | 0.00 | 0.00 | 0.00 | 74 | 1016.1 |
| 20260901192202 | 58 | 359 | 2.6 | 3.5 | 0.00 | 0.00 | 0.00 | 74 | 1016.1 |
| 20260901191701 | 58 | 354 | 1.7 | 2.6 | 0.00 | 0.00 | 0.00 | 75 | 1016.1 |
| 20260901191159 | 58 | 339 | 2.6 | 3.5 | 0.00 | 0.00 | 0.00 | 74 | 1016.0 |
| 20260901190154 | 58 | 339 | 2.6 | 3.5 | 0.00 | 0.00 | 0.00 | 71 | 1016.0 |
| 20260901185551 | 59 | 342 | 1.7 | 2.6 | 0.00 | 0.00 | 0.00 | 71 | 1016.1 |
| 20260901185050 | 58 | 340 | 2.6 | 3.5 | 0.00 | 0.00 | 0.00 | 72 | 1016.1 |
| 20260901184550 | 59 | 15 | 2.6 | 3.5 | 0.00 | 0.00 | 0.00 | 71 | 1016.0 |
| 20260901184049 | 59 | 40 | 2.6 | 3.5 | 0.00 | 0.00 | 0.00 | 72 | 1016.0 |
| 20260901183547 | 59 | 5 | 2.6 | 2.6 | 0.00 | 0.00 | 0.00 | 72 | 1016.1 |
| 20260901183046 | 59 | 16 | 1.7 | 2.6 | 0.00 | 0.00 | 0.00 | 71 | 1016.1 |
| 20260901182546 | 59 | 12 | 1.7 | 2.6 | 0.00 | 0.00 | 0.00 | 71 | 1016.1 |
| 20260901182044 | 59 | 16 | 0.9 | 1.7 | 0.00 | 0.00 | 0.00 | 72 | 1016.0 |
| 20260901181038 | 59 | 342 | 2.6 | 3.5 | 0.00 | 0.00 | 0.00 | 70 | 1016.1 |
| 20260901180537 | 60 | 326 | 3.5 | 4.3 | 0.00 | 0.00 | 0.00 | 70 | 1016.0 |
| 20260901180036 | 60 | 324 | 4.3 | 5.2 | 0.00 | 0.00 | 0.00 | 69 | 1016.1 |
| 20260901175534 | 59 | 333 | 3.5 | 5.2 | 0.00 | 0.00 | 0.00 | 70 | 1016.1 |
| 20260901175033 | 60 | 2 | 3.5 | 4.3 | 0.00 | 0.00 | 0.00 | 68 | 1016.1 |
| 20260901174532 | 60 | 25 | 3.5 | 4.3 | 0.00 | 0.00 | 0.00 | 67 | 1016.1 |
| 20260901173024 | 60 | 13 | 1.7 | 2.6 | 0.00 | 0.00 | 0.00 | 69 | 1016.1 |
| 20260901172523 | 60 | 356 | 2.6 | 3.5 | 0.00 | 0.00 | 0.00 | 68 | 1016.1 |
| 20260901172022 | 60 | 11 | 3.5 | 4.3 | 0.00 | 0.00 | 0.00 | 66 | 1016.1 |
| 20260901171521 | 60 | 3 | 2.6 | 4.3 | 0.00 | 0.00 | 0.00 | 63 | 1016.1 |
| 20260901170516 | 59 | 328 | 2.6 | 3.5 | 0.00 | 0.00 | 0.00 | 65 | 1016.2 |
| 20260901165512 | 59 | 331 | 2.6 | 3.5 | 0.00 | 0.00 | 0.00 | 66 | 1016.3 |
| 20260901164506 | 60 | 345 | 4.3 | 4.3 | 0.00 | 0.00 | 0.00 | 66 | 1016.2 |
| 20260901164004 | 60 | 1 | 2.6 | 3.5 | 0.00 | 0.00 | 0.00 | 63 | 1016.3 |